sat.trackr.live / text

‹ back to catalog

STARLINK-5164

NORAD 54178 · 2022-141X

PAYLOAD ACTIVE UNKNOWN

§ Identity

Operator
Country
US
Launch date
2022-10-28
Launch site
AFWTR
Launch vehicle
Mass (kg)
RCS (m²)

Purposes: comms

External: N2YO · Heavens-Above · Gunter

§ Orbital elements

Epoch: 2026-09-20T07:17:22.930368Z

Period
93.85 min
Inclination
53.1589°
Eccentricity
0.0000883
Mean motion
15.34391925 rev/d
Perigee alt
462.1 km
Apogee alt
463.3 km
Semi-major
6,840.9 km
B*
7.9945e-6
RAAN
194.6353°
Arg perigee
79.7374°
Mean anomaly
280.3728°
Rev number
21,545

§ Raw data

STARLINK-51641 54178U 22141X   26263.30373762 -.00000106  00000+0  79945-5 0  99912 54178  53.1589 194.6353 0000883  79.7374 280.3728 15.34391925215454

JSON: /api/v1/satellites/54178 · /tle

For live sub-satellite position, see the globe view (requires WebGL).

§ Visibility from observer

Set your observer location to see the next 7 days of passes ≥ 10°. The values pass through the URL so the page stays shareable.

No JS? Fill the form by hand. The geolocation button needs JavaScript.